Date,TemperatureHighF,TemperatureAvgF,TemperatureLowF,DewpointHighF,DewpointAvgF,DewpointLowF,HumidityHigh,HumidityAvg,HumidityLow,PressureMaxIn,PressureMinIn,WindSpeedMaxMPH,WindSpeedAvgMPH,GustSpeedMaxMPH,PrecipitationSumIn
2012-1-1,58.1,49.6,39.2,52.6,26.4,10.4,82,42,27,30.47,29.94,24,7,24,0.00
2012-1-2,39.4,32.9,25.0,12.7,9.0,4.3,43,36,30,30.62,30.41,24,8,24,0.00
2012-1-3,36.9,24.5,21.0,10.5,5.8,3.7,52,45,32,30.68,30.39,10,2,10,0.00
2012-1-4,49.1,36.4,28.8,25.4,17.0,9.6,71,45,38,30.39,30.21,13,3,13,0.00
2012-1-5,56.7,39.9,26.1,35.6,25.6,20.5,86,60,35,30.39,30.18,11,2,11,0.00
2012-1-6,64.0,57.7,43.7,49.0,37.2,31.7,72,48,31,30.12,29.97,14,5,14,0.00
2012-1-9,41.9,41.4,41.0,35.0,34.6,34.0,77,77,76,30.33,30.30,3,2,3,0.00
2012-1-10,56.3,48.5,33.8,43.1,32.1,23.9,90,57,29,30.24,29.85,9,2,9,0.79
2012-1-11,47.7,46.3,39.9,46.6,44.5,38.2,96,93,88,29.85,29.65,12,3,12,0.29
2012-1-12,42.8,36.3,22.1,42.3,31.3,7.2,98,83,52,30.09,29.74,24,3,24,0.05
2012-1-13,34.0,27.0,21.6,17.9,13.1,7.3,75,56,48,30.30,30.06,19,4,19,0.00
2012-1-14,44.2,31.9,20.3,24.6,18.9,14.7,82,60,41,30.44,30.09,15,3,15,0.00
2012-1-15,46.0,34.0,22.1,26.3,21.5,15.7,85,61,41,30.59,30.30,10,2,10,0.00
2012-1-16,62.8,55.5,41.4,53.9,43.0,25.5,76,63,46,30.30,29.97,26,7,26,0.00
2012-1-17,68.5,50.0,29.5,58.1,38.1,14.5,86,64,49,30.44,29.91,24,8,24,0.33
2012-1-18,38.5,28.9,26.1,20.8,14.7,12.5,68,55,43,30.47,30.24,12,3,12,0.00
2012-1-19,48.9,37.8,28.9,27.3,23.9,19.7,72,58,39,30.24,30.06,13,3,13,0.00
2012-1-20,45.1,37.8,29.8,36.8,27.8,20.4,80,67,53,30.21,29.94,13,3,13,0.00
2012-1-21,38.5,34.2,30.2,30.8,24.5,20.3,83,68,52,30.30,30.03,13,4,13,0.00
2012-1-22,64.9,47.5,35.4,62.5,44.3,28.6,97,89,73,30.21,29.74,28,4,28,0.83
2012-1-23,56.8,52.5,42.1,52.2,42.9,29.4,87,71,46,30.15,29.74,17,6,17,0.04
2012-1-25,40.6,39.9,39.0,38.0,36.6,34.9,91,88,85,30.39,30.12,9,3,9,0.25
2012-1-26,45.1,42.4,40.3,44.3,41.1,37.9,97,95,92,30.00,29.79,13,4,13,0.37
2012-1-27,47.8,40.6,33.6,37.9,34.4,31.5,97,80,57,30.18,29.94,10,2,10,0.00
2012-1-28,46.4,39.3,31.8,38.9,24.2,14.9,90,57,29,30.50,30.09,17,4,17,0.00
2012-1-29,50.5,38.1,32.9,25.2,22.7,20.7,65,55,37,30.47,30.41,15,4,15,0.00
2012-2-10,36.1,32.4,29.1,32.0,22.3,12.2,86,67,49,30.15,29.56,22,9,22,0.00
2012-2-11,31.1,26.3,22.3,14.5,5.9,1.9,55,42,31,30.50,30.15,21,7,21,0.00
2012-2-12,38.1,27.9,20.5,9.4,5.0,1.9,47,38,29,30.50,30.39,6,6,6,0.00
2012-2-13,34.5,34.3,34.0,30.8,30.2,29.4,86,85,83,29.97,29.91,0,0,0,0.00
2012-2-14,45.3,38.9,34.5,35.4,33.0,30.8,93,80,63,30.09,29.85,0,0,0,0.25
2012-2-27,45.3,43.1,41.0,23.0,21.2,19.7,43,41,40,30.44,29.94,4,2,4,0.25
2012-2-28,70.5,54.5,35.2,59.5,34.7,19.5,85,48,32,30.39,29.91,17,3,17,0.25
2012-2-29,69.8,64.3,50.9,63.3,52.8,25.2,93,70,28,29.91,29.74,20,7,20,0.79
2012-3-1,67.1,51.3,39.7,35.3,28.0,24.3,67,42,24,29.97,29.71,10,2,10,0.00
2012-3-2,78.8,60.1,37.6,60.9,43.7,24.7,88,57,22,29.91,29.41,30,7,31,0.09
2012-3-3,54.9,43.0,33.8,30.4,22.3,14.3,76,47,26,30.00,29.88,17,3,17,0.00
2012-3-4,56.1,44.1,30.6,28.6,22.9,18.3,70,45,28,30.03,29.85,25,3,25,0.00
2012-3-5,48.9,40.4,34.2,27.1,20.5,16.4,56,45,31,30.50,30.00,24,4,24,0.00
2012-3-6,69.8,53.6,34.7,33.4,25.8,20.2,59,36,23,30.36,30.18,23,5,23,0.00
2012-3-7,72.0,62.5,52.3,49.4,38.2,22.9,54,41,27,30.27,30.12,28,7,28,0.00
2012-3-8,66.7,60.2,41.4,58.0,51.0,32.0,95,73,53,30.33,30.03,18,7,18,1.24
2012-3-12,66.7,62.8,60.4,58.7,54.0,51.2,85,73,60,30.09,30.03,8,2,8,1.24
2012-3-13,77.5,66.0,56.8,63.9,56.5,51.7,98,74,41,30.18,30.09,10,2,10,1.24
2012-3-14,83.3,64.0,53.1,63.4,56.1,50.2,97,78,41,30.21,30.12,10,2,10,0.00
2012-3-15,73.0,65.1,58.6,65.9,59.1,53.2,97,82,66,30.24,30.12,14,2,14,0.25
2012-3-16,77.5,65.4,57.2,62.3,57.9,53.4,96,78,50,30.18,30.06,10,2,10,0.33
2012-3-17,78.4,65.6,55.0,66.3,57.5,52.1,98,78,44,30.18,30.12,13,2,13,0.00
2012-3-18,61.7,58.4,56.5,58.3,56.2,54.5,95,92,86,30.15,30.09,4,0,4,0.00
2012-3-23,71.6,63.0,53.1,64.0,51.0,41.0,98,67,39,29.97,29.85,17,4,17,0.21
2012-3-24,70.5,58.9,50.5,53.8,47.5,43.0,90,68,39,29.94,29.85,11,3,11,0.04
2012-3-28,82.6,73.5,61.7,59.0,50.6,44.8,91,48,30,29.50,29.47,11,1,11,0.04
2012-3-29,82.0,68.4,59.9,64.9,56.1,45.6,98,70,30,29.47,29.38,10,1,10,0.04
2012-3-30,75.6,67.5,59.5,65.0,58.8,53.5,91,74,54,29.38,29.26,16,2,16,0.04
2012-3-31,64.4,61.1,58.1,60.6,58.9,56.7,97,93,87,29.35,29.32,5,0,5,0.00
2012-4-4,81.7,73.5,66.6,69.0,60.2,54.1,97,65,41,29.32,29.20,10,2,10,0.00
2012-4-5,66.6,62.3,60.1,62.9,59.7,53.5,98,91,70,29.26,29.14,8,2,9,0.00
2012-4-15,83.8,78.5,68.5,58.4,55.0,51.4,65,45,35,30.03,29.50,23,6,23,0.00
2012-4-16,74.8,61.8,53.2,60.2,49.0,40.2,89,66,36,30.27,29.85,19,3,19,0.46
2012-4-17,73.2,58.8,49.8,53.1,46.9,42.9,89,67,38,30.36,30.27,9,0,9,0.00
2012-4-18,79.3,58.4,44.4,53.2,41.9,35.3,93,61,25,30.30,30.06,8,1,8,0.00
2012-4-19,80.8,61.1,45.7,50.7,43.5,39.1,90,58,25,30.09,29.88,7,1,7,0.00
2012-4-20,59.2,56.2,49.6,51.6,46.6,41.7,88,70,61,29.97,29.82,14,1,14,0.04
2012-4-21,61.0,51.3,41.9,41.7,36.8,33.5,78,59,40,30.00,29.94,11,3,12,0.04
2012-4-22,62.6,50.6,39.2,46.7,36.5,24.8,90,62,35,30.03,29.88,11,2,14,0.00
2012-4-23,65.3,49.3,38.1,29.4,25.4,23.0,60,41,24,30.06,29.97,15,4,15,0.00
2012-4-28,76.6,71.9,67.8,57.3,54.4,52.3,69,55,43,30.18,30.06,4,0,4,0.00
2012-4-29,89.6,74.9,62.1,62.9,57.6,52.2,85,58,30,30.21,30.15,10,2,10,0.00
2012-4-30,87.1,73.2,64.0,67.0,60.2,55.9,82,65,36,30.21,30.06,17,2,17,0.13
2012-5-1,91.6,76.3,63.9,69.7,60.1,52.3,96,62,29,30.18,30.03,18,3,18,0.00
2012-5-2,96.4,80.5,70.3,64.3,60.3,56.7,74,52,31,30.21,30.06,15,3,15,0.00
2012-5-3,89.6,75.8,65.3,65.1,61.3,56.5,83,62,41,30.24,30.15,10,2,10,0.00
2012-5-4,95.7,79.0,69.1,69.1,64.9,58.4,88,65,31,30.21,30.06,12,2,12,0.00
2012-5-5,93.6,79.5,68.9,68.6,64.7,59.0,85,63,37,30.18,30.03,12,1,12,0.00
2012-5-6,99.1,79.9,68.7,69.2,60.9,50.8,85,56,26,30.15,30.03,8,1,8,0.00
2012-5-7,84.0,73.7,66.9,63.8,59.2,52.5,81,61,43,30.09,29.97,10,2,10,0.00
2012-5-8,80.2,70.5,62.8,62.3,52.6,40.9,88,57,30,30.12,30.03,11,2,11,0.00
2012-5-20,83.3,72.6,66.9,69.3,63.0,56.0,88,73,48,30.30,30.18,16,1,16,0.74
2012-5-21,68.4,67.0,65.8,65.1,63.8,62.8,91,90,87,30.30,30.24,3,0,3,0.00
2012-5-31,87.1,78.7,61.3,61.3,56.5,52.6,73,48,36,29.97,29.85,9,2,9,0.00
2012-6-3,74.3,72.9,70.2,58.9,54.9,52.0,67,54,46,30.06,29.97,0,0,0,0.00
2012-6-4,89.2,77.8,67.3,66.7,62.6,58.3,85,62,39,30.06,29.88,3,0,3,0.00
2012-6-11,89.2,76.2,69.3,71.5,68.4,58.9,96,79,47,29.53,29.29,12,4,12,0.87
2012-7-26,85.5,77.9,74.7,71.9,69.1,61.1,89,76,45,30.06,29.41,12,4,12,0.87
2012-8-16,86.5,77.1,72.7,68.3,64.8,60.4,86,68,44,30.21,30.03,24,5,24,0.29
2012-9-6,84.0,83.6,83.1,70.1,65.4,60.2,63,55,47,30.18,30.15,15,8,15,3.78
2012-9-7,81.1,80.0,78.3,71.2,68.7,65.9,79,69,60,29.94,29.85,20,2,20,4.86
2012-9-23,69.6,61.0,53.4,37.6,36.3,33.2,54,41,28,30.27,29.76,10,1,10,4.86
2012-9-24,72.9,58.8,53.4,42.9,38.9,37.2,54,48,31,30.24,30.03,7,0,7,0.00
2012-9-25,84.2,71.5,62.4,63.4,55.5,42.9,65,58,46,30.03,29.94,12,2,12,0.00
2012-9-26,84.7,74.9,66.7,66.3,63.6,58.5,97,70,46,30.15,30.00,15,2,15,0.58
2012-9-27,79.0,70.4,66.9,71.2,66.6,63.1,98,89,59,30.15,30.09,6,0,6,0.17
2012-9-28,71.2,68.5,67.3,66.7,66.3,65.5,98,93,82,30.15,30.06,6,1,6,0.58
2012-9-29,75.9,70.7,56.8,66.7,55.7,47.2,98,64,38,30.09,29.97,8,1,8,0.00
2012-9-30,75.0,66.0,55.9,59.5,54.3,49.8,89,68,41,29.97,29.79,5,0,5,0.00
2012-10-1,66.0,60.8,58.3,55.6,54.6,52.2,86,80,69,29.79,29.62,13,3,13,0.12
2012-10-2,61.9,59.9,59.2,55.0,53.3,49.4,86,79,66,29.91,29.68,8,2,8,0.00
2012-10-3,73.9,66.0,60.3,55.0,53.2,49.9,82,66,43,30.15,29.91,9,1,9,0.00
2012-10-4,71.1,67.1,62.6,59.0,56.2,53.9,84,68,55,30.24,30.12,10,1,10,0.00
2012-10-5,70.5,63.5,48.9,55.8,52.5,46.4,91,68,59,30.15,30.00,14,3,14,0.54
2012-10-6,48.9,48.9,48.9,46.4,46.4,46.4,91,91,91,30.21,30.12,11,2,11,0.00
2012-10-17,77.9,70.1,59.7,58.6,51.3,45.9,93,55,37,29.71,29.20,20,4,20,0.87
2012-10-18,59.5,54.6,51.4,56.6,50.5,47.4,90,86,84,29.74,29.62,0,0,0,0.00
2012-10-25,79.3,71.2,55.6,58.2,54.8,45.6,74,57,46,30.12,29.47,14,3,14,0.00
2012-10-26,55.4,47.8,44.1,48.0,44.3,41.3,96,88,70,30.27,30.12,16,6,16,0.71
2012-12-9,66.9,63.7,55.4,64.4,60.5,51.8,95,90,82,30.33,29.32,15,5,15,0.50
2012-12-19,59.9,58.0,56.8,46.1,42.6,40.5,66,56,49,29.68,29.53,16,6,16,0.50
2012-12-20,61.0,59.8,57.6,48.2,43.1,40.0,71,54,47,29.53,29.35,24,8,24,0.00